Hourly Data Report for September 30, 2017

All times are specified in Local Standard Time (LST). Add 1 hour to adjust for Daylight Saving Time where and when it is observed.

BAS CARAQUET
NEW BRUNSWICK

47°48'08.000" N
64°50'00.000" W
5.00 m
8100467
71598
WXS

Download Data

Hourly Data (September 2017)
Hourly Data Report for September 30, 2017
Temp Definition
°C
Dew Point Temp Definition
°C
Rel Hum Definition
%
Wind Dir Definition
10's deg

Wind Spd Definition
km/h
Visibility Definition
km
Stn Press Definition
kPa
Hmdx Definition


Wind Chill Definition


Weather Definition


TIME
00:00 8.2 3.4 72 33 22   101.82     LegendNANA
01:00 7.7 3.4 74 35 17   101.88     LegendNANA
02:00 7.8 4.3 78 36 17   101.91     LegendNANA
03:00 7.4 3.8 78 1 16   101.96     LegendNANA
04:00 7.3 3.4 76 1 13   102.03     LegendNANA
05:00 7.1 1.9 70 35 12   102.09     LegendNANA
06:00 6.5 0.1 64 36 13   102.14     LegendNANA
07:00 7.0 1.0 65 36 15   102.23     LegendNANA
08:00 7.8 1.5 64 1 14   102.30     LegendNANA
09:00 8.7 0.6 57 36 10   102.37     LegendNANA
10:00 9.3 1.4 58 36 11   102.39     LegendNANA
11:00 9.5 0.3 53 2 6   102.41     LegendNANA
12:00 10.8 1.6 53 32 9   102.43     LegendNANA
13:00 10.3 -0.3 48 31 8   102.40     LegendNANA
14:00 10.5 0.3 49 30 7   102.35     LegendNANA
15:00 10.5 0.7 51 30 6   102.34     LegendNANA
16:00 10.5 0.3 49 28 6   102.30     LegendNANA
17:00 9.3 1.1 57 29 4   102.28     LegendNANA
18:00 7.3 1.1 64 21 6   102.26     LegendNANA
19:00 5.5 0.3 69 21 7   102.28     LegendNANA
20:00 4.3 0.0 74 20 6   102.27     LegendNANA
21:00 4.8 0.1 72 19 9   102.24     LegendNANA
22:00 4.7 0.4 73 20 10   102.20     LegendNANA
23:00 4.5 0.7 76 21 12   102.19     LegendNANA

Notes on Data Quality.

Legend

  • E = Estimated
  • M = Missing
  • NA = Not Available
  • ‡ = Partner data that is not subject to review by the National Climate Archives
Date modified: